QPF
0.00 0.00 0.00 0.00 0.00 0.00 0.00 0.00 0.00 0.00 0.00 0.01 0.01 0.01 0.00 0.01 0.01 0.01 0.01 0.01 0.03 0.04 0.03 0.02 0.02 0.02 0.02 0.03 0.03 0.03 0.03 0.03 0.04 0.05 0.07 0.08 0.11 0.11 0.10 0.09 0.10 0.11 0.10 0.11
0.00 0.00 0.00 0.00 0.00 0.00 0.00 0.00 0.00 0.00 0.00 0.00 0.00 0.00 0.00 0.00 0.00 0.00 0.01 0.01 0.01 0.02 0.02 0.01 0.01 0.01 0.01 0.02 0.02 0.02 0.03 0.04 0.07 0.08 0.11 0.11 0.10 0.13 0.16 0.14 0.12 0.11 0.10 0.10
0.00 0.00 0.00 0.00 0.00 0.00 0.00 0.00 0.00 0.00 0.00 0.00 0.00 0.00 0.00 0.00 0.00 0.00 0.01 0.00 0.00 0.01 0.01 0.01 0.01 0.01 0.01 0.01 0.02 0.03 0.04 0.10 0.13 0.11 0.09 0.10 0.09 0.08 0.10 0.12 0.11 0.09 0.08 0.09
0.00 0.00 0.00 0.00 0.00 0.00 0.00 0.00 0.00 0.00 0.00 0.00 0.00 0.00 0.00 0.00 0.00 0.01 0.00 0.00 0.01 0.01 0.02 0.02 0.02 0.02 0.02 0.02 0.02 0.04 0.09 0.18 0.16 0.14 0.11 0.09 0.08 0.08 0.08 0.09 0.09 0.07 0.06 0.07
0.00 0.00 0.00 0.00 0.00 0.00 0.00 0.00 0.00 0.00 0.01 0.01 0.00 0.00 0.01 0.01 0.02 0.01 0.01 0.01 0.02 0.04 0.03 0.02 0.02 0.03 0.03 0.04 0.05 0.07 0.09 0.16 0.21 0.23 0.17 0.10 0.07 0.06 0.07 0.09 0.10 0.08 0.07 0.05
0.00 0.00 0.00 0.00 0.00 0.00 0.00 0.01 0.01 0.01 0.01 0.01 0.01 0.00 0.01 0.01 0.01 0.01 0.00 0.01 0.01 0.02 0.02 0.03 0.04 0.04 0.03 0.04 0.06 0.07 0.08 0.08 0.07 0.08 0.06 0.05 0.06 0.06 0.07 0.10 0.12 0.12 0.11 0.10
0.00 0.00 0.01 0.01 0.01 0.02 0.02 0.01 0.02 0.01 0.01 0.01 0.01 0.01 0.01 0.01 0.01 0.00 0.01 0.01 0.01 0.02 0.01 0.02 0.03 0.03 0.04 0.05 0.06 0.08 0.09 0.06 0.04 0.03 0.03 0.03 0.04 0.04 0.04 0.04 0.06 0.05 0.05 0.07
0.00 0.00 0.01 0.01 0.02 0.02 0.02 0.02 0.02 0.02 0.02 0.01 0.02 0.02 0.02 0.01 0.01 0.01 0.01 0.02 0.02 0.02 0.03 0.03 0.04 0.03 0.04 0.06 0.07 0.07 0.05 0.03 0.03 0.02 0.03 0.04 0.04 0.03 0.03 0.03 0.02 0.02 0.02 0.02
0.00 0.00 0.00 0.01 0.01 0.02 0.03 0.02 0.02 0.03 0.04 0.03 0.03 0.03 0.03 0.02 0.02 0.01 0.02 0.02 0.02 0.02 0.03 0.03 0.04 0.04 0.05 0.06 0.05 0.04 0.03 0.03 0.03 0.03 0.02 0.01 0.02 0.02 0.02 0.02 0.01 0.01 0.01 0.01
0.00 0.01 0.01 0.01 0.02 0.02 0.02 0.02 0.03 0.04 0.06 0.05 0.04 0.04 0.03 0.02 0.02 0.02 0.02 0.03 0.03 0.03 0.03 0.03 0.04 0.04 0.04 0.05 0.05 0.04 0.02 0.02 0.02 0.02 0.01 0.01 0.01 0.01 0.01 0.01 0.01 0.01 0.01 0.01
0.01 0.01 0.01 0.01 0.01 0.02 0.02 0.02 0.03 0.04 0.05 0.07 0.08 0.06 0.05 0.04 0.03 0.03 0.03 0.03 0.04 0.04 0.04 0.03 0.03 0.03 0.03 0.03 0.03 0.02 0.01 0.01 0.01 0.01 0.01 0.01 0.01 0.01 0.01 0.01 0.01 0.01 0.01 0.01
0.01 0.01 0.01 0.01 0.01 0.02 0.03 0.03 0.04 0.06 0.06 0.07 0.07 0.07 0.06 0.05 0.04 0.04 0.04 0.04 0.04 0.04 0.04 0.03 0.03 0.03 0.02 0.02 0.02 0.02 0.01 0.01 0.01 0.01 0.01 0.00 0.00 0.00 0.01 0.01 0.01 0.01 0.01 0.01
0.02 0.01 0.02 0.02 0.02 0.02 0.02 0.03 0.05 0.06 0.06 0.07 0.07 0.06 0.05 0.04 0.04 0.05 0.05 0.04 0.04 0.03 0.03 0.03 0.03 0.02 0.03 0.03 0.02 0.01 0.01 0.01 0.01 0.00 0.00 0.00 0.00 0.00 0.00 0.00 0.01 0.01 0.01 0.01
0.02 0.03 0.03 0.03 0.03 0.03 0.03 0.03 0.04 0.05 0.07 0.08 0.10 0.08 0.06 0.06 0.07 0.06 0.05 0.05 0.03 0.02 0.02 0.02 0.02 0.02 0.03 0.02 0.01 0.01 0.01 0.01 0.01 0.01 0.00 0.00 0.00 0.01 0.00 0.00 0.00 0.00 0.00 0.00
0.04 0.03 0.03 0.03 0.04 0.05 0.05 0.05 0.06 0.05 0.07 0.09 0.10 0.11 0.08 0.07 0.08 0.08 0.05 0.03 0.04 0.03 0.02 0.02 0.02 0.02 0.03 0.02 0.02 0.02 0.01 0.01 0.02 0.01 0.01 0.00 0.01 0.01 0.01 0.00 0.00 0.00 0.00 0.00
0.05 0.04 0.05 0.04 0.05 0.07 0.09 0.10 0.11 0.10 0.08 0.10 0.11 0.09 0.08 0.06 0.06 0.07 0.06 0.04 0.04 0.05 0.03 0.02 0.02 0.02 0.02 0.02 0.02 0.02 0.02 0.02 0.02 0.01 0.01 0.01 0.01 0.01 0.01 0.00 0.00 0.00 0.00 0.00
0.05 0.05 0.07 0.07 0.06 0.06 0.10 0.12 0.15 0.13 0.10 0.10 0.09 0.09 0.08 0.06 0.05 0.04 0.04 0.04 0.04 0.04 0.03 0.03 0.03 0.03 0.02 0.02 0.01 0.01 0.01 0.01 0.01 0.01 0.01 0.00 0.01 0.01 0.00 0.00 0.00 0.00 0.00 0.01
0.05 0.05 0.06 0.06 0.06 0.05 0.06 0.08 0.11 0.13 0.10 0.09 0.09 0.10 0.08 0.07 0.06 0.05 0.05 0.04 0.03 0.03 0.03 0.03 0.04 0.03 0.02 0.01 0.01 0.01 0.01 0.01 0.01 0.01 0.01 0.01 0.01 0.02 0.02 0.02 0.02 0.03 0.03 0.03
0.07 0.06 0.06 0.06 0.07 0.05 0.05 0.07 0.08 0.10 0.09 0.08 0.09 0.10 0.09 0.06 0.05 0.05 0.05 0.03 0.03 0.03 0.03 0.03 0.04 0.03 0.02 0.01 0.01 0.01 0.01 0.01 0.01 0.01 0.01 0.01 0.01 0.01 0.02 0.03 0.04 0.04 0.03 0.02
0.07 0.05 0.06 0.07 0.08 0.06 0.06 0.06 0.06 0.07 0.09 0.08 0.09 0.09 0.08 0.07 0.05 0.04 0.05 0.04 0.03 0.03 0.03 0.02 0.03 0.02 0.02 0.01 0.01 0.01 0.01 0.01 0.01 0.01 0.02 0.02 0.03 0.02 0.02 0.02 0.02 0.02 0.01 0.01
0.06 0.06 0.05 0.07 0.07 0.05 0.04 0.04 0.05 0.05 0.05 0.06 0.06 0.05 0.05 0.06 0.05 0.04 0.04 0.03 0.03 0.03 0.03 0.02 0.02 0.02 0.02 0.02 0.01 0.01 0.01 0.01 0.02 0.02 0.02 0.01 0.02 0.01 0.01 0.01 0.01 0.01 0.01 0.01
0.07 0.08 0.07 0.07 0.08 0.06 0.03 0.03 0.03 0.03 0.02 0.02 0.03 0.04 0.03 0.03 0.03 0.03 0.03 0.03 0.03 0.03 0.02 0.02 0.01 0.02 0.02 0.01 0.01 0.01 0.01 0.01 0.01 0.01 0.01 0.01 0.01 0.01 0.01 0.01 0.00 0.00 0.00 0.01
0.09 0.09 0.08 0.07 0.07 0.07 0.04 0.02 0.02 0.02 0.01 0.01 0.02 0.02 0.03 0.03 0.03 0.04 0.04 0.03 0.03 0.02 0.02 0.01 0.02 0.02 0.01 0.01 0.01 0.01 0.01 0.01 0.01 0.01 0.01 0.01 0.01 0.01 0.01 0.01 0.01 0.01 0.01 0.01
0.11 0.09 0.08 0.07 0.07 0.07 0.05 0.03 0.02 0.02 0.02 0.01 0.01 0.02 0.02 0.02 0.03 0.05 0.06 0.05 0.04 0.03 0.02 0.02 0.02 0.02 0.01 0.01 0.02 0.02 0.02 0.02 0.02 0.02 0.02 0.02 0.02 0.02 0.02 0.02 0.01 0.01 0.01 0.01
0.13 0.09 0.06 0.05 0.06 0.06 0.05 0.04 0.02 0.02 0.02 0.01 0.01 0.01 0.01 0.02 0.02 0.03 0.04 0.03 0.03 0.02 0.02 0.02 0.02 0.02 0.01 0.01 0.01 0.02 0.02 0.03 0.03 0.02 0.02 0.03 0.03 0.03 0.03 0.03 0.02 0.02 0.01 0.01
0.10 0.08 0.05 0.03 0.04 0.04 0.04 0.03 0.02 0.01 0.02 0.01 0.01 0.01 0.01 0.02 0.02 0.02 0.02 0.02 0.02 0.02 0.01 0.01 0.02 0.02 0.01 0.01 0.01 0.02 0.03 0.03 0.04 0.03 0.04 0.05 0.05 0.05 0.04 0.04 0.03 0.02 0.02 0.02
0.08 0.06 0.04 0.03 0.02 0.02 0.02 0.01 0.01 0.01 0.01 0.01 0.01 0.01 0.02 0.02 0.03 0.03 0.02 0.02 0.02 0.01 0.01 0.01 0.01 0.01 0.01 0.01 0.02 0.03 0.03 0.03 0.03 0.03 0.04 0.04 0.05 0.05 0.06 0.04 0.03 0.03 0.02 0.02
MSLP
1014.77 1015.42 1016.05 1016.61 1017.06 1017.36 1017.48 1017.41 1017.13 1016.69 1016.12 1015.50 1014.92 1014.46 1014.19 1014.15 1014.37 1014.80 1015.42 1016.15 1016.91 1017.64 1018.29 1018.84 1019.29 1019.66 1019.98 1020.29 1020.62 1020.98 1021.37 1021.77 1022.15 1022.48 1022.73 1022.88 1022.94 1022.90 1022.80 1022.67 1022.52 1022.38 1022.25 1022.15
1014.82 1015.40 1015.89 1016.25 1016.46 1016.53 1016.43 1016.19 1015.82 1015.35 1014.84 1014.34 1013.92 1013.63 1013.52 1013.61 1013.90 1014.38 1015.00 1015.72 1016.46 1017.20 1017.87 1018.48 1019.02 1019.49 1019.93 1020.35 1020.78 1021.22 1021.67 1022.10 1022.51 1022.87 1023.16 1023.36 1023.48 1023.52 1023.50 1023.43 1023.34 1023.24 1023.15 1023.05
1014.92 1015.40 1015.73 1015.89 1015.89 1015.74 1015.45 1015.07 1014.61 1014.14 1013.68 1013.27 1012.98 1012.82 1012.83 1013.01 1013.36 1013.86 1014.47 1015.17 1015.91 1016.65 1017.37 1018.05 1018.68 1019.27 1019.83 1020.36 1020.88 1021.39 1021.88 1022.35 1022.79 1023.17 1023.50 1023.76 1023.95 1024.08 1024.15 1024.18 1024.17 1024.13 1024.06 1023.97
1015.00 1015.36 1015.52 1015.50 1015.30 1014.96 1014.51 1014.01 1013.49 1013.00 1012.58 1012.26 1012.06 1012.00 1012.09 1012.34 1012.72 1013.23 1013.85 1014.54 1015.29 1016.06 1016.83 1017.60 1018.33 1019.04 1019.71 1020.35 1020.95 1021.52 1022.05 1022.54 1022.99 1023.40 1023.76 1024.07 1024.34 1024.56 1024.73 1024.86 1024.93 1024.96 1024.93 1024.85
1015.02 1015.23 1015.23 1015.03 1014.65 1014.14 1013.57 1012.97 1012.41 1011.91 1011.52 1011.26 1011.13 1011.15 1011.31 1011.60 1012.01 1012.54 1013.16 1013.87 1014.65 1015.47 1016.32 1017.17 1018.02 1018.84 1019.62 1020.35 1021.02 1021.63 1022.19 1022.69 1023.15 1023.57 1023.95 1024.31 1024.65 1024.95 1025.22 1025.44 1025.60 1025.70 1025.71 1025.66
1014.91 1014.96 1014.80 1014.43 1013.90 1013.27 1012.59 1011.93 1011.34 1010.85 1010.49 1010.27 1010.21 1010.29 1010.50 1010.83 1011.28 1011.84 1012.49 1013.23 1014.05 1014.94 1015.87 1016.82 1017.77 1018.69 1019.57 1020.38 1021.11 1021.75 1022.33 1022.83 1023.29 1023.71 1024.12 1024.51 1024.90 1025.27 1025.61 1025.91 1026.15 1026.30 1026.36 1026.34
1014.64 1014.54 1014.22 1013.72 1013.07 1012.35 1011.60 1010.91 1010.30 1009.83 1009.51 1009.35 1009.34 1009.48 1009.74 1010.13 1010.62 1011.21 1011.91 1012.70 1013.57 1014.53 1015.53 1016.57 1017.61 1018.62 1019.57 1020.44 1021.21 1021.88 1022.47 1022.98 1023.43 1023.86 1024.27 1024.68 1025.10 1025.52 1025.91 1026.27 1026.56 1026.76 1026.87 1026.87
1014.21 1013.97 1013.53 1012.92 1012.20 1011.42 1010.66 1009.96 1009.37 1008.94 1008.67 1008.56 1008.62 1008.81 1009.14 1009.57 1010.12 1010.76 1011.50 1012.34 1013.27 1014.28 1015.35 1016.44 1017.54 1018.61 1019.61 1020.52 1021.32 1022.01 1022.61 1023.12 1023.58 1024.01 1024.43 1024.85 1025.28 1025.72 1026.14 1026.52 1026.85 1027.08 1027.22 1027.25
1013.65 1013.30 1012.78 1012.12 1011.37 1010.58 1009.83 1009.17 1008.63 1008.25 1008.04 1008.00 1008.12 1008.38 1008.76 1009.26 1009.85 1010.54 1011.33 1012.21 1013.17 1014.21 1015.31 1016.44 1017.56 1018.65 1019.67 1020.60 1021.42 1022.13 1022.74 1023.27 1023.74 1024.18 1024.60 1025.03 1025.47 1025.91 1026.33 1026.72 1027.04 1027.29 1027.44 1027.51
1013.02 1012.61 1012.05 1011.39 1010.65 1009.91 1009.22 1008.61 1008.15 1007.84 1007.70 1007.73 1007.91 1008.23 1008.67 1009.22 1009.86 1010.59 1011.40 1012.30 1013.28 1014.32 1015.41 1016.52 1017.64 1018.71 1019.73 1020.66 1021.49 1022.22 1022.85 1023.41 1023.90 1024.36 1024.80 1025.24 1025.67 1026.10 1026.50 1026.87 1027.18 1027.42 1027.58 1027.66
1012.38 1011.96 1011.42 1010.79 1010.13 1009.46 1008.85 1008.34 1007.96 1007.73 1007.67 1007.76 1008.01 1008.38 1008.87 1009.45 1010.13 1010.88 1011.70 1012.59 1013.54 1014.55 1015.60 1016.67 1017.74 1018.78 1019.77 1020.68 1021.52 1022.26 1022.93 1023.52 1024.06 1024.56 1025.02 1025.47 1025.90 1026.31 1026.69 1027.02 1027.29 1027.51 1027.65 1027.74
1011.80 1011.40 1010.92 1010.38 1009.81 1009.26 1008.76 1008.35 1008.06 1007.91 1007.91 1008.06 1008.35 1008.77 1009.29 1009.90 1010.58 1011.33 1012.14 1013.00 1013.91 1014.86 1015.84 1016.83 1017.83 1018.81 1019.76 1020.65 1021.49 1022.26 1022.97 1023.61 1024.21 1024.75 1025.26 1025.73 1026.16 1026.55 1026.89 1027.18 1027.41 1027.58 1027.70 1027.78
1011.31 1010.97 1010.57 1010.14 1009.69 1009.25 1008.87 1008.56 1008.36 1008.29 1008.35 1008.54 1008.86 1009.30 1009.83 1010.44 1011.12 1011.85 1012.63 1013.44 1014.29 1015.17 1016.06 1016.98 1017.89 1018.81 1019.71 1020.58 1021.42 1022.21 1022.97 1023.67 1024.32 1024.93 1025.48 1025.98 1026.42 1026.79 1027.10 1027.35 1027.53 1027.66 1027.75 1027.81
1010.91 1010.64 1010.35 1010.03 1009.70 1009.39 1009.11 1008.91 1008.79 1008.78 1008.88 1009.09 1009.43 1009.87 1010.40 1011.00 1011.66 1012.36 1013.10 1013.86 1014.64 1015.44 1016.26 1017.09 1017.92 1018.77 1019.62 1020.47 1021.31 1022.13 1022.93 1023.69 1024.41 1025.07 1025.67 1026.19 1026.64 1027.01 1027.30 1027.51 1027.66 1027.75 1027.81 1027.85
1010.58 1010.40 1010.20 1009.99 1009.78 1009.58 1009.41 1009.29 1009.24 1009.28 1009.41 1009.64 1009.98 1010.41 1010.92 1011.50 1012.14 1012.81 1013.50 1014.21 1014.94 1015.67 1016.41 1017.17 1017.94 1018.73 1019.54 1020.36 1021.20 1022.04 1022.86 1023.67 1024.43 1025.14 1025.78 1026.34 1026.80 1027.17 1027.44 1027.63 1027.75 1027.82 1027.86 1027.89
1010.30 1010.18 1010.08 1009.97 1009.87 1009.78 1009.70 1009.66 1009.67 1009.75 1009.90 1010.14 1010.48 1010.89 1011.39 1011.94 1012.55 1013.19 1013.85 1014.52 1015.19 1015.87 1016.55 1017.25 1017.97 1018.70 1019.47 1020.27 1021.10 1021.94 1022.78 1023.61 1024.40 1025.14 1025.80 1026.37 1026.84 1027.21 1027.49 1027.67 1027.79 1027.85 1027.89 1027.92
1010.03 1009.98 1009.95 1009.94 1009.94 1009.94 1009.96 1010.00 1010.06 1010.18 1010.36 1010.61 1010.94 1011.34 1011.82 1012.35 1012.93 1013.54 1014.17 1014.81 1015.44 1016.08 1016.72 1017.37 1018.04 1018.74 1019.47 1020.23 1021.03 1021.86 1022.69 1023.51 1024.30 1025.04 1025.70 1026.27 1026.75 1027.12 1027.40 1027.59 1027.72 1027.80 1027.85 1027.90
1009.76 1009.76 1009.82 1009.89 1009.99 1010.09 1010.19 1010.31 1010.44 1010.60 1010.81 1011.08 1011.41 1011.81 1012.28 1012.79 1013.35 1013.94 1014.54 1015.14 1015.75 1016.36 1016.96 1017.58 1018.20 1018.86 1019.55 1020.27 1021.02 1021.80 1022.59 1023.38 1024.14 1024.84 1025.48 1026.04 1026.51 1026.88 1027.16 1027.37 1027.52 1027.63 1027.71 1027.80
1009.49 1009.55 1009.68 1009.85 1010.04 1010.24 1010.43 1010.63 1010.84 1011.06 1011.32 1011.61 1011.96 1012.36 1012.82 1013.32 1013.86 1014.42 1015.00 1015.58 1016.16 1016.73 1017.31 1017.88 1018.47 1019.08 1019.72 1020.38 1021.08 1021.79 1022.52 1023.23 1023.93 1024.58 1025.17 1025.68 1026.12 1026.48 1026.77 1026.99 1027.17 1027.32 1027.45 1027.59
1009.25 1009.38 1009.59 1009.85 1010.13 1010.43 1010.72 1011.02 1011.30 1011.60 1011.91 1012.24 1012.61 1013.02 1013.47 1013.96 1014.48 1015.02 1015.57 1016.12 1016.67 1017.21 1017.75 1018.29 1018.83 1019.39 1019.97 1020.57 1021.19 1021.82 1022.46 1023.09 1023.70 1024.26 1024.78 1025.24 1025.64 1025.97 1026.25 1026.48 1026.68 1026.87 1027.05 1027.23
1009.08 1009.29 1009.57 1009.92 1010.30 1010.69 1011.08 1011.46 1011.84 1012.20 1012.57 1012.95 1013.35 1013.78 1014.23 1014.70 1015.20 1015.72 1016.23 1016.75 1017.26 1017.77 1018.27 1018.76 1019.26 1019.76 1020.28 1020.80 1021.34 1021.89 1022.43 1022.96 1023.47 1023.94 1024.37 1024.76 1025.10 1025.39 1025.65 1025.88 1026.10 1026.31 1026.52 1026.75
1009.03 1009.30 1009.66 1010.09 1010.55 1011.03 1011.51 1011.97 1012.42 1012.86 1013.28 1013.70 1014.13 1014.57 1015.02 1015.48 1015.96 1016.44 1016.92 1017.40 1017.88 1018.34 1018.80 1019.25 1019.70 1020.15 1020.60 1021.06 1021.52 1021.97 1022.42 1022.85 1023.26 1023.63 1023.98 1024.28 1024.55 1024.80 1025.02 1025.24 1025.45 1025.67 1025.90 1026.15
1009.11 1009.44 1009.87 1010.36 1010.88 1011.43 1011.97 1012.50 1013.01 1013.49 1013.97 1014.42 1014.87 1015.32 1015.77 1016.21 1016.66 1017.12 1017.56 1018.00 1018.44 1018.86 1019.28 1019.69 1020.10 1020.50 1020.90 1021.29 1021.68 1022.06 1022.42 1022.76 1023.08 1023.36 1023.62 1023.85 1024.05 1024.24 1024.42 1024.61 1024.80 1025.01 1025.24 1025.49
1009.33 1009.71 1010.18 1010.70 1011.27 1011.85 1012.43 1012.99 1013.54 1014.06 1014.56 1015.04 1015.50 1015.95 1016.39 1016.82 1017.25 1017.67 1018.09 1018.50 1018.90 1019.28 1019.67 1020.04 1020.41 1020.77 1021.13 1021.47 1021.81 1022.12 1022.42 1022.68 1022.92 1023.13 1023.32 1023.47 1023.62 1023.75 1023.89 1024.03 1024.19 1024.38 1024.59 1024.82
1009.68 1010.09 1010.57 1011.10 1011.67 1012.26 1012.85 1013.42 1013.98 1014.51 1015.02 1015.50 1015.97 1016.42 1016.85 1017.27 1017.68 1018.07 1018.46 1018.84 1019.21 1019.57 1019.93 1020.27 1020.61 1020.94 1021.26 1021.57 1021.86 1022.13 1022.38 1022.59 1022.78 1022.93 1023.06 1023.16 1023.25 1023.34 1023.43 1023.54 1023.66 1023.81 1023.99 1024.19
1010.11 1010.52 1011.00 1011.52 1012.07 1012.64 1013.21 1013.77 1014.31 1014.83 1015.34 1015.82 1016.28 1016.72 1017.14 1017.55 1017.94 1018.32 1018.69 1019.05 1019.39 1019.73 1020.06 1020.38 1020.70 1021.01 1021.30 1021.58 1021.84 1022.08 1022.29 1022.46 1022.61 1022.73 1022.82 1022.89 1022.95 1023.00 1023.06 1023.13 1023.23 1023.34 1023.48 1023.64
1010.58 1010.98 1011.44 1011.93 1012.45 1012.98 1013.51 1014.03 1014.55 1015.05 1015.54 1016.01 1016.46 1016.90 1017.31 1017.71 1018.09 1018.46 1018.82 1019.16 1019.48 1019.80 1020.11 1020.41 1020.70 1020.98 1021.25 1021.50 1021.73 1021.95 1022.13 1022.29 1022.41 1022.51 1022.59 1022.64 1022.68 1022.72 1022.76 1022.81 1022.88 1022.97 1023.08 1023.21
Thickness
5726 5738 5741 5745 5743 5739 5740 5733 5728 5737 5744 5763 5774 5780 5786 5789 5791 5793 5793 5794 5793 5791 5790 5788 5785 5782 5780 5776 5773 5769 5764 5760 5757 5755 5752 5748 5746 5743 5741 5737 5735 5732 5729 5727
5724 5735 5739 5739 5742 5742 5744 5741 5743 5747 5750 5771 5776 5779 5781 5784 5787 5788 5788 5789 5789 5788 5786 5783 5781 5778 5775 5771 5768 5764 5759 5755 5753 5750 5747 5743 5739 5737 5734 5731 5728 5725 5723 5721
5704 5723 5730 5720 5736 5739 5742 5747 5747 5744 5758 5769 5770 5774 5779 5782 5784 5784 5786 5786 5785 5784 5782 5779 5777 5774 5770 5766 5762 5758 5753 5750 5747 5744 5740 5737 5734 5730 5727 5724 5721 5718 5716 5714
5693 5707 5696 5721 5746 5748 5746 5749 5753 5759 5765 5768 5773 5776 5780 5782 5782 5782 5783 5782 5781 5780 5778 5775 5773 5769 5766 5762 5757 5753 5748 5744 5741 5738 5734 5730 5727 5723 5720 5717 5714 5712 5710 5707
5680 5685 5699 5724 5740 5743 5740 5741 5753 5756 5762 5765 5769 5770 5772 5780 5782 5782 5783 5781 5779 5777 5774 5770 5767 5764 5760 5755 5751 5747 5742 5739 5735 5732 5728 5724 5720 5716 5713 5710 5707 5705 5703 5700
5678 5683 5684 5715 5741 5749 5743 5733 5753 5755 5757 5760 5762 5753 5764 5778 5779 5779 5779 5777 5774 5772 5768 5764 5760 5758 5753 5749 5745 5741 5737 5734 5730 5726 5722 5718 5713 5710 5706 5704 5700 5698 5695 5693
5677 5682 5694 5722 5737 5742 5721 5728 5752 5754 5756 5758 5759 5765 5773 5776 5775 5774 5773 5771 5770 5766 5762 5758 5755 5752 5747 5743 5739 5736 5732 5728 5724 5720 5715 5711 5707 5703 5700 5697 5694 5691 5688 5685
5671 5678 5690 5725 5730 5726 5729 5743 5749 5753 5756 5757 5760 5765 5767 5769 5768 5767 5766 5764 5763 5759 5754 5751 5750 5746 5741 5736 5733 5730 5726 5721 5716 5713 5709 5705 5701 5697 5694 5691 5687 5684 5681 5678
5682 5688 5706 5718 5725 5731 5735 5737 5744 5748 5753 5755 5756 5757 5759 5760 5759 5759 5758 5757 5755 5752 5747 5744 5742 5741 5735 5730 5727 5723 5718 5713 5709 5705 5701 5697 5694 5691 5687 5684 5680 5677 5674 5671
5683 5695 5705 5714 5721 5727 5732 5736 5742 5747 5750 5752 5752 5753 5752 5751 5751 5750 5750 5749 5747 5744 5739 5735 5734 5732 5729 5724 5720 5716 5710 5705 5701 5698 5693 5689 5686 5684 5681 5677 5674 5670 5667 5664
5679 5691 5700 5709 5715 5721 5728 5734 5738 5742 5745 5747 5747 5746 5745 5744 5745 5745 5743 5742 5740 5737 5733 5728 5726 5723 5721 5718 5714 5708 5703 5699 5695 5691 5686 5681 5677 5674 5672 5670 5667 5665 5661 5658
5675 5687 5690 5698 5709 5716 5721 5725 5729 5732 5735 5740 5742 5740 5739 5737 5737 5737 5736 5734 5732 5730 5726 5723 5719 5716 5713 5710 5707 5702 5697 5692 5688 5683 5679 5675 5671 5666 5663 5662 5660 5658 5655 5652
5679 5686 5690 5698 5705 5711 5714 5719 5723 5725 5727 5729 5731 5732 5731 5730 5729 5729 5728 5727 5726 5724 5721 5717 5713 5709 5706 5703 5700 5696 5691 5686 5681 5677 5673 5669 5666 5663 5657 5653 5651 5648 5646 5644
5678 5682 5685 5693 5698 5704 5709 5713 5716 5718 5720 5722 5722 5723 5723 5722 5720 5719 5720 5720 5719 5716 5713 5711 5707 5703 5701 5697 5694 5690 5686 5681 5677 5672 5668 5664 5660 5657 5653 5650 5645 5639 5636 5634
5674 5679 5682 5688 5692 5696 5701 5704 5705 5706 5710 5712 5713 5715 5716 5715 5713 5712 5713 5712 5710 5707 5705 5703 5700 5697 5695 5692 5688 5684 5680 5675 5671 5667 5663 5659 5654 5650 5646 5642 5637 5632 5628 5625
5669 5673 5677 5680 5684 5688 5691 5695 5696 5697 5701 5703 5705 5707 5708 5708 5707 5706 5706 5704 5702 5699 5697 5696 5694 5692 5689 5686 5682 5678 5674 5670 5666 5661 5656 5652 5648 5644 5639 5635 5631 5627 5623 5620
5661 5664 5668 5672 5676 5680 5684 5688 5690 5692 5694 5697 5698 5699 5699 5699 5698 5697 5696 5696 5695 5693 5691 5689 5687 5685 5682 5679 5676 5672 5668 5664 5660 5655 5650 5646 5642 5638 5633 5629 5625 5621 5617 5613
5660 5664 5667 5670 5672 5674 5678 5681 5684 5686 5688 5690 5691 5691 5689 5688 5688 5687 5687 5686 5685 5684 5683 5682 5680 5677 5675 5672 5669 5666 5662 5658 5654 5649 5644 5639 5635 5631 5627 5623 5619 5614 5610 5606
5655 5658 5661 5664 5667 5670 5672 5674 5676 5678 5680 5680 5681 5682 5682 5680 5680 5679 5679 5678 5677 5675 5674 5674 5672 5670 5667 5665 5662 5658 5655 5651 5646 5642 5637 5633 5629 5625 5621 5617 5613 5608 5604 5600
5649 5653 5655 5658 5660 5662 5664 5667 5669 5671 5671 5672 5673 5673 5672 5671 5671 5671 5670 5669 5669 5668 5668 5667 5665 5662 5660 5657 5654 5651 5648 5644 5640 5635 5631 5627 5623 5619 5615 5611 5607 5602 5598 5594
5642 5646 5649 5651 5653 5655 5658 5660 5661 5662 5664 5665 5665 5664 5664 5663 5664 5664 5662 5660 5659 5660 5660 5658 5657 5654 5652 5649 5647 5644 5641 5637 5633 5630 5626 5622 5618 5613 5609 5605 5601 5597 5592 5588
5635 5639 5642 5645 5647 5648 5650 5652 5654 5655 5656 5657 5657 5657 5656 5655 5655 5655 5654 5654 5653 5652 5652 5651 5649 5647 5644 5641 5639 5637 5634 5630 5627 5623 5620 5616 5612 5608 5603 5599 5595 5591 5587 5582
5629 5633 5636 5639 5640 5641 5643 5645 5647 5648 5649 5650 5650 5650 5649 5648 5648 5648 5646 5644 5644 5644 5644 5642 5641 5638 5636 5634 5632 5629 5626 5623 5620 5617 5613 5609 5606 5602 5598 5594 5589 5585 5581 5576
5623 5626 5628 5631 5633 5634 5635 5637 5639 5640 5641 5642 5643 5643 5643 5642 5640 5640 5640 5638 5637 5636 5635 5633 5631 5629 5628 5626 5623 5621 5619 5616 5613 5610 5606 5602 5598 5595 5591 5587 5582 5578 5574 5570
5616 5618 5621 5623 5625 5626 5628 5629 5631 5632 5633 5633 5634 5635 5636 5636 5635 5633 5632 5630 5629 5628 5626 5624 5622 5621 5619 5618 5616 5613 5611 5609 5606 5602 5598 5594 5591 5587 5584 5580 5575 5571 5567 5563
5608 5611 5613 5616 5618 5619 5621 5623 5624 5624 5625 5625 5625 5625 5626 5626 5626 5625 5624 5622 5621 5619 5618 5615 5614 5612 5611 5609 5608 5606 5603 5600 5597 5594 5591 5587 5584 5580 5576 5572 5568 5564 5560 5556
5601 5604 5607 5609 5610 5612 5614 5616 5617 5617 5618 5618 5617 5617 5618 5618 5618 5616 5615 5613 5612 5611 5609 5607 5606 5604 5603 5602 5600 5598 5595 5592 5589 5586 5583 5580 5576 5573 5569 5565 5561 5557 5553 5549